This demonstration page uses our WeatherBlox Daily Observations layout. Learn more.

40.92945, -100.16068

Hourly Observations for July 30, 2015

Temp ( °F °C ) Dew Point ( °F °C ) Humidity (%) Winds ( mph kmh ) Pressure ( in mb ) Visibility ( mi km ) Precip ( " mm )
12:15 am 00:15 Clear 63 17.3 58 14.4 83 83 S 3 6 30.18 1022 10 16.0934 N/A
12:35 am 00:35 Clear 64 17.5 57 14 80 80 SSE 3 6 30.18 1022 10 16.0934 N/A
12:55 am 00:55 Clear 62 16.7 56 13.4 81 81 SSE 3 6 30.18 1022 10 16.0934 N/A
1:15 am 01:15 Clear 62 16.7 56 13.5 82 82 Calm 30.18 1022 10 16.0934 N/A
1:35 am 01:35 Clear 61 16 55 13 83 83 S 3 6 30.18 1022 10 16.0934 N/A
1:55 am 01:55 Clear 60 15.5 55 12.7 84 84 S 6 9 30.18 1022 10 16.0934 N/A
2:15 am 02:15 Clear 60 15.4 55 12.6 84 84 S 5 7 30.21 1023 10 16.0934 N/A
2:35 am 02:35 Clear 61 16 55 12.7 81 81 Calm 30.18 1022 10 16.0934 N/A
2:55 am 02:55 Clear 61 16.1 55 12.5 79 79 Calm 30.18 1022 10 16.0934 N/A
3:15 am 03:15 Clear 62 16.5 54 12.4 77 77 Calm 30.18 1022 10 16.0934 N/A
3:35 am 03:35 Clear 61 16 54 12.1 78 78 SSW 5 7 30.18 1022 10 16.0934 N/A
3:55 am 03:55 Clear 60 15.5 55 12.6 83 83 SSW 6 9 30.18 1022 10 16.0934 N/A
4:15 am 04:15 Clear 58 14.6 53 11.9 84 84 NNW 3 6 30.24 1024 10 16.0934 N/A
4:35 am 04:35 Clear 57 13.7 53 11.6 87 87 Calm 30.21 1023 10 16.0934 N/A
4:55 am 04:55 Clear 56 13.3 53 11.7 90 90 Calm 30.21 1023 10 16.0934 N/A
5:15 am 05:15 Clear 55 12.8 53 11.5 92 92 Calm 30.21 1023 10 16.0934 N/A
5:35 am 05:35 Clear 54 12.4 52 11.2 92 92 E 3 6 30.21 1023 10 16.0934 N/A
5:55 am 05:55 Clear 55 12.8 53 11.8 94 94 Calm 30.21 1023 10 16.0934 N/A
6:15 am 06:15 Clear 55 12.5 53 11.5 94 94 Calm 30.21 1023 10 16.0934 N/A
6:35 am 06:35 Sunny 55 12.8 53 11.7 93 93 Calm 30.21 1023 10 16.0934 N/A
6:55 am 06:55 Sunny 54 12.3 52 11.2 93 93 Calm 30.21 1023 10 16.0934 N/A
7:15 am 07:15 Sunny 55 12.6 53 11.6 94 94 Calm 30.21 1023 10 16.0934 N/A
7:35 am 07:35 Sunny 57 14 55 13 94 94 Calm 30.21 1023 10 16.0934 N/A
7:55 am 07:55 Sunny 60 15.5 58 14.2 92 92 Calm 30.18 1022 10 16.0934 N/A
8:15 am 08:15 Sunny 63 17.1 59 15.2 89 89 Calm 30.21 1023 10 16.0934 N/A
8:35 am 08:35 Sunny 68 19.8 61 16.1 79 79 SSW 5 7 30.18 1022 10 16.0934 N/A
8:55 am 08:55 Sunny 71 21.6 63 17.1 76 76 SSW 7 11 30.18 1022 10 16.0934 N/A
9:15 am 09:15 Sunny 74 23.2 65 18.3 74 74 SW 6 9 30.15 1021 10 16.0934 N/A
9:35 am 09:35 Sunny 75 23.8 66 18.7 73 73 SSW 12 19 30.15 1021 10 16.0934 N/A
9:55 am 09:55 Sunny 76 24.5 66 19.1 72 72 SSW 9 15 30.15 1021 10 16.0934 N/A
10:15 am 10:15 Sunny 77 25 67 19.2 70 70 SSW 13 20 30.15 1021 10 16.0934 N/A
10:35 am 10:35 Sunny 78 25.3 67 19.5 70 70 SW 12 19 30.15 1021 10 16.0934 N/A
10:55 am 10:55 Sunny 79 26 67 19.2 66 66 SW 12 19 30.12 1020 10 16.0934 N/A
11:15 am 11:15 Sunny 80 26.4 66 18.9 63 63 SW 8 13 30.12 1020 10 16.0934 N/A
11:35 am 11:35 Sunny 81 27.1 66 18.8 61 61 SSW 10 17 30.09 1019 10 16.0934 N/A
11:55 am 11:55 Sunny 81 27.3 65 18.4 58 58 SSW 10 17 30.12 1020 10 16.0934 N/A
12:15 pm 12:15 Sunny 82 27.7 65 18.4 57 57 S 9 15 30.12 1020 10 16.0934 N/A
12:35 pm 12:35 Sunny 83 28.5 65 18.1 53 53 S 7 11 30.12 1020 10 16.0934 N/A
12:55 pm 12:55 Sunny 83 28.5 64 18 53 53 SSW 9 15 30.09 1019 10 16.0934 N/A
1:15 pm 13:15 Sunny 84 29 64 17.8 51 51 S 7 11 30.09 1019 10 16.0934 N/A
1:35 pm 13:35 Sunny 85 29.5 64 17.7 49 49 SSW 9 15 30.06 1018 10 16.0934 N/A
1:55 pm 13:55 Sunny 85 29.7 64 17.7 48 48 SSW 6 9 30.06 1018 10 16.0934 N/A
2:15 pm 14:15 Sunny 86 30.1 64 17.8 48 48 WSW 7 11 30.06 1018 10 16.0934 N/A
2:35 pm 14:35 Sunny 86 30.1 63 17.1 46 46 S 3 6 30.03 1017 10 16.0934 N/A
2:55 pm 14:55 Sunny 88 31 62 16.9 43 43 SW 10 17 30.03 1017 10 16.0934 N/A
3:15 pm 15:15 Sunny 87 30.8 62 16.4 42 42 SSW 8 13 30.03 1017 10 16.0934 N/A
3:35 pm 15:35 Sunny 88 31 60 15.6 39 39 SSW 10 17 30.03 1017 10 16.0934 N/A
3:55 pm 15:55 Sunny 89 31.6 61 16.2 39 39 WSW 6 9 30.03 1017 10 16.0934 N/A
4:15 pm 16:15 Sunny 89 31.7 61 16.2 39 39 WSW 6 9 30.03 1017 10 16.0934 N/A
4:35 pm 16:35 Sunny 89 31.9 60 15.4 37 37 SW 5 7 30 1016 10 16.0934 N/A
4:55 pm 16:55 Sunny 89 31.4 60 15.8 39 39 SSW 7 11 30 1016 10 16.0934 N/A
5:15 pm 17:15 Sunny 90 32 59 15 36 36 S 6 9 30 1016 10 16.0934 N/A
5:35 pm 17:35 Sunny 90 32 60 15.4 37 37 S 9 15 30 1016 10 16.0934 N/A
5:55 pm 17:55 Sunny 89 31.7 60 15.8 38 38 S 8 13 30 1016 10 16.0934 N/A
6:15 pm 18:15 Sunny 89 31.5 62 16.6 41 41 SSE 10 17 29.94 1014 10 16.0934 N/A
6:35 pm 18:35 Sunny 88 31 63 17.2 44 44 SSE 7 11 29.97 1015 10 16.0934 N/A
6:55 pm 18:55 Sunny 88 31.1 63 17 43 43 SSE 10 17 29.97 1015 10 16.0934 N/A
7:15 pm 19:15 Sunny 87 30.7 61 16.3 42 42 SSE 10 17 29.97 1015 7 11.26538 N/A
7:35 pm 19:35 Sunny 86 30 61 16.1 43 43 SSE 9 15 29.97 1015 10 16.0934 N/A
7:55 pm 19:55 Sunny 83 28.6 64 18 53 53 SSE 7 11 29.97 1015 10 16.0934 N/A
8:15 pm 20:15 Sunny 82 27.6 66 18.8 59 59 SSE 6 9 30 1016 10 16.0934 N/A
8:35 pm 20:35 Sunny 80 26.9 66 19 62 62 SE 5 7 30 1016 10 16.0934 N/A
8:55 pm 20:55 Sunny 78 25.6 67 19.5 69 69 SSE 5 7 30 1016 10 16.0934 N/A
9:15 pm 21:15 Clear 78 25.5 67 19.7 70 70 SSE 6 9 30.03 1017 10 16.0934 N/A
9:35 pm 21:35 Clear 77 24.9 68 19.8 73 73 SE 7 11 30.03 1017 10 16.0934 N/A
9:55 pm 21:55 Clear 75 24.1 67 19.7 77 77 S 6 9 30.06 1018 10 16.0934 N/A
10:15 pm 22:15 Clear 74 23.2 68 19.8 81 81 Calm 30.09 1019 7 11.26538 N/A
10:35 pm 22:35 Clear 74 23.2 67 19.7 81 81 SSE 6 9 30.09 1019 10 16.0934 N/A
10:55 pm 22:55 Clear 74 23.4 67 19.7 80 80 SE 7 11 30.06 1018 10 16.0934 N/A
11:15 pm 23:15 Clear 73 22.9 67 19.5 81 81 SSE 6 9 30.06 1018 10 16.0934 N/A
11:35 pm 23:35 Clear 73 22.6 67 19.3 82 82 SSE 6 9 30.06 1018 10 16.0934 N/A
11:55 pm 23:55 Clear 72 22.1 66 19 83 83 SSE 5 7 30.06 1018 10 16.0934 N/A

Powered by AerisWeather